JAS 1 (FUJI 1)

导读

JAS 1(FUJI 1)是日本于1986年8月12日成功发射的业余无线电通信卫星,由日本航天爱好者联盟主导开发,是日本首颗由民间自主研发的业余卫星。该卫星运行在近地轨道,主要承载业余无线电转发、空间环境观测等任务,为全球业余无线电爱好者提供双向通信测试平台,也推动了日本民间航天技术的早期探索,在日本业余航天发展历程中具有标志性意义。

Basic Information
目录编号:
16909
目录名称:
JAS 1 (FUJI 1)
国际标识:
1986-061B
轨道中心:
EARTH
卫星名称:
JAS 1 (FUJI 1)
卫星全名:
--
卫星状态:
在轨 (已飞行14581 天)
发射日期:
1986-08-12 UTC
国别 :
日本 (JP)
星等 :
--
Orbit Information
数据来源 国际轨道数据 AOE轨道数据
星历时间 2026-07-14T04:38:13+0800
8小时前
查看轨道信息
2026-07-11T00:00:00+0800
3天前
查看轨道信息
半长轴 7865.78km 7865.778km
偏心率 0.0010924 0.0010911
轨道倾角 50.016° 50.016°
近地点辐角 228.996° 221.480°
升交点赤经 71.356° 81.174°
平近点角 217.840° 311.176°
近地点 1479.05km 1479.058km
远地点 1496.236km 1496.224km
周期 115.710分钟 115.710分钟
每日圈数 12.444863 12.444868
Detailed Information
使用方式:
暂无
2D Orbit Map
3D Orbit Map
Orbit Altitude Analysis Chart
Orbit Inclination Analysis Chart
Orbit Comprehensive Analysis Chart
View Comprehensive Chart